To NAV CANADA Home Page Login to a new session Search on AWWS site Feedback and Comments Disclaimer Vers la page française équivalente Tips FAQ What's new on the site To the Forecasts and Observations / NOTAM section To "File a Flight Plan" website Publications and other links Update of the User's profile FIC Telephone Numbers My Weather Data Folder Route Weather Data Regional Weather Data Local Weather Data To the Forecasts and Observations / NOTAM section
Request Generated 08/31/2016 at 21:38:59 UTC . Weather information available at that time is displayed.

METAR/TAF

MAKKOVIK/NL    

LWIS CYFT 312100Z AUTO 33010KT 05/05 A2979=
METAR CYFT 312000Z 32010G16KT 15SM OVC007 06/05 A2977 RMK SC8 LAST
OBS/NEXT010900 UTC SLP086=
SPECI CYFT 311953Z 32010KT 15SM OVC007 06/05 A2977 RMK SC8 SLP086=
METAR CYFT 311900Z 34009KT 15SM OVC010 07/05 A2976 RMK SC8 SLP083=

CYFT - No TAF is issued for this station

Your time UTC time
Weather data provided by Environment Canada and NAV CANADA